Flag for U.S.A. Weather past 2 weeks in Cape Canaveral, Florida, U.S.A.

Now
75 °F

Sunny.


Feels Like: 76 °F
Forecast: 76 / 85 °F
Wind: 9 mph from Southwest

Location: Cape Kennedy

Current Time: Aug 2, 2015 at 8:45:06 PM

Latest Report: Aug 2, 2015 at 7:58 PM


Visibility: 10 mi

Pressure: 29.95 "Hg

Humidity: 84%

Dew point: 70 °F

Location of Cape CanaveralLocation

Historic Weather in Cape Canaveral — Graph

°F

Cape Canaveral temperature yesterday

Maximum temperature yesterday: 87 °F (at 1:58 PM)
Minimum temperature yesterday: 74 °F (at 3:58 PM)
Average temperature yesterday: 77 °F

Past Weeks' High & Low Weather Summary

 TemperatureHumidityPressure
High93 °F (Jul 22, 11:58 AM)100% (Jul 21, 3:58 AM)30.07 "Hg (Jul 21, 3:58 AM)
Low73 °F (Aug 2, 3:58 PM)56% (Jul 19, 2:58 PM)29.84 "Hg (Jul 26, 3:58 AM)
Average81 °F84%29.96 "Hg
* Reported Jul 18 7:58 PM — Aug 2 7:58 PM, Cape Canaveral, Weather by CustomWeather, © 2015

Note: Actual official high and low records may vary slightly from our data, if they occured in-between our weather recording intervals... More about our weather records

Advertising

Cape Canaveral weather history for previous 24 hours

 ConditionsComfort  
Time TempWeatherWind HumidityBarometerVisibility
7:58 PM
Sun, Aug 2
75 °FSunny.9 mph84%29.95 "Hg10 mi
6:58 PM76 °FSunny.10 mph85%29.95 "Hg10 mi
5:58 PM78 °FSunny.7 mph85%29.95 "Hg10 mi
4:58 PM75 °FSunny.5 mph86%29.95 "Hg10 mi
3:58 PM73 °FLight rain. Scattered clouds.6 mph84%29.97 "Hg7 mi
2:58 PM90 °FSunny.18 mph68%29.96 "Hg10 mi
1:58 PM87 °FScattered clouds.14 mph74%29.95 "Hg10 mi
12:58 PM86 °FPassing clouds.10 mph77%29.96 "Hg10 mi
11:58 AM85 °FSunny.13 mph81%29.96 "Hg10 mi
10:58 AM83 °FSunny.10 mph87%29.96 "Hg10 mi
9:58 AM80 °FSunny.7 mph94%29.96 "Hg10 mi
8:58 AM78 °FSunny.3 mph96%29.96 "Hg10 mi
7:58 AM75 °FSunny.6 mph96%29.95 "Hg10 mi
6:58 AM74 °FClear.3 mph95%29.94 "Hg10 mi
5:58 AM74 °FClear.5 mph96%29.93 "Hg10 mi
4:58 AM74 °FClear.8 mph94%29.93 "Hg10 mi
3:58 AM73 °FClear.5 mph95%29.91 "Hg10 mi
2:58 AM73 °FClear.6 mph94%29.95 "Hg10 mi
1:58 AM75 °FClear.9 mph96%29.97 "Hg10 mi
12:58 AM75 °FClear.9 mph97%29.98 "Hg10 mi
11:58 PM
Sat, Aug 1
75 °FClear.6 mph97%29.99 "Hg10 mi
10:58 PM74 °FClear.9 mph97%29.99 "Hg10 mi
9:58 PM74 °FClear.6 mph96%29.99 "Hg10 mi
8:58 PM74 °FSunny.5 mph95%29.98 "Hg10 mi
Weather by CustomWeather, © 2015

See weather overviewHow to use our weather pages